Meteo Giornale » Osservazioni meteo Danimarca » Billund Lufthavn

ore: 19:50 - Osservazioni Meteo Billund Lufthavn
Lat. 55° 44' N Lon. 9° 10' E Alt. 75 metri s.l.m.

molto_nuvoloso Europe/Copenhagen

12 °C

Molto Nuvoloso

Temp. 24 Ore

12 °C

15 °C

Ovest

40.7 Km/h

Dew point 8 °C

Umidità 76 %

Visibilità  10 Km

Il sole sorge alle ore 07:09

Il sole tramonta alle ore 19:21

Data e Ora Cielo e Fenomeni T °C DP °C Um. % Pres. hPa Vis. km Vento km/h
Oggi h: 19:50 molto_nuvoloso Molto Nuvoloso 12 8 76 1004 10 O 40.7
Oggi h: 19:20 molto_nuvoloso Molto Nuvoloso 12 8 76 1004 10 O/NO 42.6
Oggi h: 18:50 molto_nuvoloso Molto Nuvoloso 12 7 71 1004 10 O/NO 46.3
Oggi h: 18:20 molto_nuvoloso Molto Nuvoloso 13 7 66 1003 10 O/NO 44.4
Oggi h: 17:50 molto_nuvoloso Molto Nuvoloso 13 7 66 1003 10 O 40.7
Oggi h: 17:20 molto_nuvoloso Molto Nuvoloso 13 7 66 1003 10 O 46.3
Oggi h: 16:50 molto_nuvoloso Molto Nuvoloso 13 7 66 1003 10 O 48.1
Oggi h: 16:20 molto_nuvoloso Molto Nuvoloso 13 10 81 1002 10 O/NO 42.6
Oggi h: 15:50 nuvoloso_piovaschi Rovescio di Pioggia 13 11 87 1002 10 O 46.3
Oggi h: 15:20 nuvoloso_piovaschi Debole Rovescio di Pioggia 15 12 82 1002 10 O 38.8
Oggi h: 14:50 molto_nuvoloso Molto Nuvoloso 15 12 82 1002 10 O 42.6
Oggi h: 14:20 coperto_pioggia Pioviggine Leggera 15 11 76 1003 10 O 40.7
Oggi h: 13:50 molto_nuvoloso Molto Nuvoloso 15 12 82 1003 10 O 38.8
Oggi h: 13:20 coperto Coperto 14 12 87 1003 10 O 31.5
Oggi h: 12:50 coperto_pioggia Pioggia Debole 13 12 93 1004 10 O 31.5
Oggi h: 12:20 nuvoloso_piovaschi Debole Rovescio di Pioggia Foschia 13 12 93 1004 5 O 40.7
Oggi h: 11:50 nuvoloso_piovaschi Rovescio di Pioggia 15 14 93 1004 2 O/SO 37
Oggi h: 11:20 nuvoloso_piovaschi Debole Rovescio di Pioggia 15 14 93 1004 10 O/SO 35.2
Oggi h: 10:50 nuvoloso_piovaschi Debole Rovescio di Pioggia 15 14 93 1005 10 O/SO 31.5
Oggi h: 10:20 nuvoloso_piovaschi Debole Rovescio di Pioggia 15 14 93 1005 10 O/SO 31.5
Oggi h: 09:20 nuvoloso_piovaschi Debole Rovescio di Pioggia 15 14 93 1006 10 SO 25.9
Oggi h: 08:50 coperto_pioggia Pioggia Debole 15 14 93 1007 10 SO 24
Oggi h: 08:20 coperto Coperto 15 13 87 1007 10 SO 24
Oggi h: 07:50 coperto Coperto 15 13 87 1008 10 SO 22.2
Oggi h: 07:20 coperto Coperto 15 13 87 1008 10 SO 22.2
Oggi h: 06:50 coperto Coperto 15 14 93 1009 10 O/SO 20.3
Oggi h: 05:50 coperto Coperto 15 14 93 1010 10 SO 22.2
Oggi h: 05:20 nuvoloso_piovaschi Debole Rovescio di Pioggia 15 14 93 1010 10 SO 16.7
Oggi h: 04:50 coperto_pioggia Pioggia Debole 15 14 93 1011 10 SO 18.5
Oggi h: 04:20 coperto Coperto 15 13 87 1012 10 SO 20.3
Oggi h: 03:50 coperto Coperto 15 13 87 1013 10 SO 14.8
Oggi h: 03:20 molto_nuvoloso Molto Nuvoloso 15 13 87 1013 10 SO 16.7
Oggi h: 02:50 molto_nuvoloso Molto Nuvoloso 14 13 93 1014 10 SO 14.8
Oggi h: 02:20 molto_nuvoloso Molto Nuvoloso 14 12 87 1014 10 SO 16.7
Oggi h: 01:50 molto_nuvoloso Molto Nuvoloso 14 12 87 1015 10 O/SO 18.5
Oggi h: 01:20 molto_nuvoloso Molto Nuvoloso 14 12 87 1015 10 O/SO 18.5
Oggi h: 00:50 molto_nuvoloso Molto Nuvoloso 15 12 82 1016 10 O/SO 22.2
Oggi h: 00:20 molto_nuvoloso Molto Nuvoloso 15 12 82 1016 10 SO 18.5
Ieri h: 23:50 coperto Coperto 15 13 87 1016 10 O/SO 20.3
Ieri h: 23:20 molto_nuvoloso Molto Nuvoloso 15 13 87 1017 10 SO 18.5
Ieri h: 22:50 molto_nuvoloso Molto Nuvoloso 15 12 82 1017 10 SO 22.2
Ieri h: 22:20 coperto Coperto 15 12 82 1018 10 SO 14.8
Ieri h: 21:50 molto_nuvoloso Molto Nuvoloso 14 13 93 1018 10 SO 16.7
Ieri h: 21:20 molto_nuvoloso Molto Nuvoloso 14 13 93 1018 10 SO 16.7
Ieri h: 20:50 molto_nuvoloso Molto Nuvoloso 14 12 87 1019 10 S/SO 13